Showing default

SHENZHOU-23, 69180

Orbit data source: Space-Track

SHENZHOU-23, 69180 is a Chinese payload satellite in LEO that was launched on Sun, 24 May 2026 UTC via a CHANG ZHENG 2F launch vehicle from the Jiuquan Satellite Launch Center, China (JSC). Payload-class satellites include a variety of spacecraft equipped with specific instruments for various scientific and technological missions. These include communications satellites like Starlink; space stations such as the ISS; scientific satellites like the Hubble; Earth observation satellites from companies like Planet Labs, Umbra, and HawkEye 360; GPS; miniature CubeSats for education and research; and military/defense satellites.

Loading next visibility...
Identifier
69180, 2026-113A
Orbit
LEO
Country
Flag of CNCN / PRC
Related business
None
Manufacturer
Unknown
Mission
Operational spacecraft
Bus & Motor
Unknown
Mass
Unknown
Launch date (UTC)
2026-05-24 (2 days ago)
Launch vehicle
CHANG ZHENG 2F
Launch site
Jiuquan Satellite Launch Center, China (JSC)
Object type
Payload
Rocket body
Debris
Shape & HBR
Unknown
Radar Cross Section
RCS unknown

Expand to show TLE details & history
Last TLE update: 13 hours ago

TLE from 13 hours ago
0 SHENZHOU-23
1 69180U 26113A   26146.21496744  .00016782  00000-0  20616-3 0  9995
2 69180  41.4680  95.6204 0010996 283.3018  76.6594 15.59835875289771
Epoch: 2026-05-26T05:09Z
TLE epoch observation values (Epoch: 2026-05-26T05:09:33.186Z)
Latitude
-0.00004°
Longitude
134.44047°
Altitude
386.023 km
Speed
7.681 km/s
True Right ascension
06h 22m 28s
True Declination
0° 00' 00"
Sunlit
Object was in daylight at epoch
Visualization orbit readout
Latitude
Unknown
Longitude
Unknown
Altitude
Unknown
Speed
Unknown
Apparent Right ascension
Unknown
Apparent Declination
Unknown
Sunlit
N/A
Visualization observer readout
Local Sidereal Time
03:33:42
Azimuth
Unknown
Elevation
Unknown
Doppler factor
Unknown
Orbital elements
Apogee altitude
397.807 km
Perigee altitude
382.921 km
Semi-major axis
6,768.501 km
Eccentricity
0.0011
Inclination
41.468°
RAAN
95.6204°
Arg. of periapsis
283.3018°
True anomaly
76.78204°
Mean anomaly
76.6594°
Eccentric anomaly
76.72072°
Mean motion
3.89766 °/min
Orbital period
92.36 mins
BSTAR
0.00020616
Loading maneuver chart data...
Computing Atmospheric mass density...
Loading historical data...
Loading historical data...
Loading historical data...
Loading historical data...
Loading historical data...
Loading historical data...
Loading historical data...
Other satellites on launch #113 in the year 2026 (2026-05-24 UTC)

Documentation

Showing up to 5 results
|